Location: Round Knob
(37.2473°N, 88.7376°W)
Time: 12:32:28
(UTC+00:00)

Cosmos 1300 - Pass Details

Date: 29 October 2020
Orbit: 511 x 514 km, 82.5° (Epoch: 04 December)

Event Time Altitude Azimuth Distance (km) Brightness Sun altitude
Rises 23:21:49 0° 188° (S) 2,612 6.6 -5.1°
Reaches altitude 10° 23:23:56 10° 189° (S) 1,731 5.7 -5.5°
Maximum altitude 23:27:43 81° 275° (W) 525 2.8 -6.2°
Drops below altitude 10° 23:31:34 10° 5° (N) 1,746 5.2 -7.0°
Sets 23:33:42 0° 6° (N) 2,637 6.1 -7.4°
